DLH5EF EDDF-EGBB

Flight info

Callsign DLH5EF
Flight time N/A
Altitude 34000
Route OBOKA3W OBOKA Z29 TORNU DCT BATAK DCT GALSO Q63 ERING L179 LAM L610 HEMEL
Aircraft A320/M-SDE3FGHIRWY/LB1

Departure

Time 2026-05-05 14:21
Airport Frankfurt Main Airport (EDDF)

Arrival

Time N/A
Airport Birmingham Airport (EGBB)
Time Latitude Longitude Altitude Speed Heading
2026-05-05 13:45 50.04653 8.57059 365 ft 0 kts 91°
2026-05-05 14:12 50.04653 8.57051 356 ft 4 kts 91°
2026-05-05 14:12 50.04653 8.57009 356 ft 4 kts 91°
2026-05-05 14:13 50.04654 8.56976 358 ft 4 kts 109°
2026-05-05 14:13 50.04667 8.56951 360 ft 4 kts 178°
2026-05-05 14:13 50.04677 8.56951 359 ft 4 kts 204°
2026-05-05 14:13 50.04653 8.56934 360 ft 4 kts 204°
2026-05-05 14:14 50.04647 8.56929 358 ft 0 kts 204°
2026-05-05 14:17 50.04640 8.56925 362 ft 5 kts 203°
2026-05-05 14:17 50.04589 8.56904 360 ft 8 kts 193°
2026-05-05 14:17 50.04552 8.56890 362 ft 3 kts 193°
2026-05-05 14:17 50.04526 8.56881 359 ft 8 kts 193°
2026-05-05 14:18 50.04433 8.56850 366 ft 17 kts 189°
2026-05-05 14:18 50.04317 8.56818 360 ft 17 kts 186°
2026-05-05 14:18 50.04288 8.56953 361 ft 17 kts 69°
2026-05-05 14:18 50.04333 8.57144 362 ft 18 kts 69°
2026-05-05 14:19 50.04375 8.57316 364 ft 19 kts 69°
2026-05-05 14:19 50.04434 8.57558 367 ft 25 kts 75°
2026-05-05 14:19 50.04346 8.57681 363 ft 19 kts 163°
2026-05-05 14:19 50.04259 8.57642 365 ft 12 kts 246°
2026-05-05 14:20 50.04253 8.57614 362 ft 0 kts 252°
2026-05-05 14:20 50.04231 8.57514 365 ft 35 kts 250°
2026-05-05 14:20 50.04063 8.56815 361 ft 101 kts 250°
2026-05-05 14:21 50.03756 8.55530 356 ft 151 kts 249°
2026-05-05 14:21 50.03364 8.53893 725 ft 164 kts 249°
2026-05-05 14:21 50.02966 8.52239 1482 ft 164 kts 248°
2026-05-05 14:21 50.02499 8.50521 1896 ft 184 kts 238°
2026-05-05 14:22 50.01608 8.48968 2327 ft 201 kts 217°
2026-05-05 14:22 50.00314 8.48059 2995 ft 207 kts 191°
2026-05-05 14:22 49.98891 8.47730 3855 ft 207 kts 189°
2026-05-05 14:22 49.97467 8.47415 4734 ft 206 kts 189°
2026-05-05 14:23 49.96042 8.47068 5512 ft 209 kts 195°
2026-05-05 14:23 49.94573 8.46409 5933 ft 231 kts 197°
2026-05-05 14:23 49.93006 8.45644 6516 ft 242 kts 202°
2026-05-05 14:23 49.91568 8.44324 7273 ft 247 kts 219°
2026-05-05 14:24 49.90423 8.42312 8045 ft 253 kts 237°
2026-05-05 14:24 49.89516 8.39957 8847 ft 256 kts 238°
2026-05-05 14:24 49.88816 8.37390 9631 ft 263 kts 254°
2026-05-05 14:24 49.88617 8.34486 10070 ft 283 kts 271°
2026-05-05 14:25 49.88785 8.31312 10306 ft 307 kts 273°
2026-05-05 14:25 49.89097 8.27947 10509 ft 332 kts 283°
2026-05-05 14:25 49.90044 8.24579 10925 ft 348 kts 301°
2026-05-05 14:25 49.91479 8.21509 11572 ft 354 kts 305°
2026-05-05 14:26 49.92954 8.18427 12320 ft 357 kts 305°
2026-05-05 14:26 49.94565 8.15450 12998 ft 363 kts 314°
2026-05-05 14:26 49.95813 8.13704 13425 ft 366 kts 318°
2026-05-05 14:26 49.97755 8.11102 14055 ft 370 kts 318°
2026-05-05 14:27 49.99717 8.08481 14666 ft 373 kts 318°
2026-05-05 14:27 50.01692 8.05849 15278 ft 376 kts 318°
2026-05-05 14:27 50.03692 8.03181 15898 ft 380 kts 318°
2026-05-05 14:27 50.05703 8.00496 16526 ft 383 kts 318°
2026-05-05 14:28 50.07737 7.97773 17085 ft 387 kts 318°
2026-05-05 14:28 50.09783 7.95026 17663 ft 390 kts 318°
2026-05-05 14:28 50.11846 7.92250 18207 ft 394 kts 318°
2026-05-05 14:28 50.13927 7.89445 18676 ft 397 kts 318°
2026-05-05 14:29 50.16023 7.86618 19142 ft 400 kts 317°
2026-05-05 14:29 50.18137 7.83760 19645 ft 403 kts 317°
2026-05-05 14:29 50.20263 7.80885 20126 ft 406 kts 317°
2026-05-05 14:29 50.22406 7.77982 20602 ft 409 kts 317°
2026-05-05 14:30 50.24596 7.75124 21064 ft 412 kts 322°